Regional Weather Roundup
Issued by NWS Green Bay, WI

Home | Current Version | Previous Version | Graphics & Text | Print | Product List | Glossary Off
Versions: 1 2 3 4 5 6 7 8 9 10 11 12 13 14 15 16 17 18 19 20 21 22 23 24 25 26 27 28 29 30 31 32 33 34 35 36 37 38 39 40 41 42 43 44 45 46 47 48 49 50

000
ASUS43 KGRB 291211
RWRGRB

NORTH-CENTRAL AND NORTHEAST WISCONSIN REGIONAL WEATHER ROUNDUP
NATIONAL WEATHER SERVICE GREEN BAY WI
700 AM CDT FRI MAY 29 2015

WIZ005-009-010>012-018-019-291300-
NORTH CENTRAL WISCONSIN

CITY           SKY/WX    TMP DP  RH WIND       PRES   REMARKS
IRONWOOD       CLOUDY    61  55  82 S7        29.87F
MANITOWISH WTR DRIZZLE   60  57  91 S6        29.94S
ARBOR VITAE    LGT RAIN  62  57  85 S6        29.95F
EAGLE RIVER    LGT RAIN  60  53  76 CALM      29.95F
LAND O LAKES   DRIZZLE   62  55  77 S3        29.96S
RHINELANDER    CLOUDY    62  56  80 S5        29.96F
PHILLIPS       PTSUNNY   62  55  80 S7        29.92F
ANTIGO         CLOUDY    59  56  90 S5        29.98S
TOMAHAWK       CLOUDY    60  56  88 CALM      29.96S
MERRILL        CLOUDY    62  59  91 S3        29.96F
$$

WIZ013-073-291300-
NORTHEAST WISCONSIN

CITY           SKY/WX    TMP DP  RH WIND       PRES   REMARKS
IRON MOUNTAIN  CLOUDY    59  55  87 SE5       29.96F
MARINETTE      CLOUDY    64  54  68 S9        29.97F
OCONTO         CLOUDY    65  59  81 S6        29.97F
$$

WIZ017-030-035>037-045-291300-
CENTRAL WISCONSIN

CITY           SKY/WX    TMP DP  RH WIND       PRES   REMARKS
MEDFORD        CLOUDY    60  58  93 S7        29.95S
WAUSAU         CLOUDY    63  58  83 S7        29.95F
MOSINEE        MOSUNNY   61  61 100 S5        29.98F
MARSHFIELD     CLOUDY    62  59  90 S9        29.95S
WISC RAPIDS    CLOUDY    63  59  87 S7        29.97F
STEVENS POINT  CLOUDY    60  58  93 CALM      29.97F
WAUPACA        LGT RAIN  64  63  96 SE3       29.98S
SHAWANO        CLOUDY    64  58  81 CALM      29.98S
CLINTONVILLE   DRIZZLE   63  57  82 S3        29.98S
$$

WIZ038-039-048-051-291300-
FOX VALLEY

CITY           SKY/WX    TMP DP  RH WIND       PRES   REMARKS
NWS GREEN BAY  LGT RAIN  65  58  78 S5        29.99F
APPLETON       DRIZZLE   64  57  77 SW5       29.99F
OSHKOSH        LGT RAIN  64  58  80 SE3       29.99S
FOND DU LAC    CLOUDY    65  60  84 S3        30.00S
$$

WIZ022-050-052-291300-
EAST CENTRAL WISCONSIN

CITY           SKY/WX    TMP DP  RH WIND       PRES   REMARKS
STURGEON BAY   CLOUDY    61  52  72 S13G21    30.02S
MANITOWOC      PTSUNNY   59  54  83 S6        30.01S
SHEBOYGAN      PTSUNNY   60  55  83 S3        30.01R
$$

LMZ563-521-522-541>543-291300-
LAKESHORE

STATION/POSITION TIME  TEMP    WIND        PRES    VSBY  WAVE
                       AIR SEA DIR/SP/G                  HT/PER
                 (UTC) (F)     (DEG/KT/KT) (MB)    (MI)  (FT/S)
SHEBOYGAN LKSHOR 1200   52     170/  8/  8 1016.6R
KEWAUNEE LKSHORE 1100   52     170/  5/  7 1015.5F
ALGOMA MARINA    1108             CALM       N/A
NORTHPORT PIER   1100   58     150/  7/ 12 1015.9F
N MID LAKE BUOY  1150   43 36  180/  8/  8 1016.5F         1
SISTER BAY LKSHO 1118   59     150/ 15/ 19   N/A
CHAMBERS ISLAND  1100   63     150/  7/ 16 1015.2F
MENOMINEE LKSHOR 1100   63     170/  8/ 12 1015.8F
$$



USA.gov is the U.S. government's official web portal to all federal, state and local government web resources and services.